Location: Helsinki
(60.1699°N, 24.9384°E)
Time: 20:23:38
(UTC+02:00)

Transit 4A - Pass Details

Date: 30 October 2020
Orbit: 862 x 982 km, 66.8° (Epoch: 30 November)

Event Time Altitude Azimuth Distance (km) Brightness Sun altitude
Rises 14:08:42 0° 169° (SSE) 3,614 11.8 11.7°
Reaches altitude 10° 14:11:50 10° 154° (SSE) 2,692 10.8 11.5°
Maximum altitude 14:16:19 21° 108° (ESE) 2,041 9.6 11.2°
Drops below altitude 10° 14:20:52 10° 62° (ENE) 2,740 9.9 10.9°
Sets 14:24:05 0° 48° (NE) 3,698 10.4 10.6°
